• In Czech Republic
  • List of Countries
  • For 7 days
  • Water Temperature
  • Satellite Maps
  • Weather Map
  • Weather Widgets
  • user-avatar
    Login

    Hourly Weather Kitzbuhel

    Today, 29 June, Thursday

    Time Temperature Precipitation Wind Pressure Humidity
    00:00 +13°C° 0.1 mm 3 mps 666 mmHg 93%
    01:00 +13°C° 0 mm 2 mps 665 mmHg 94%
    02:00 +12°C° 0.3 mm 2 mps 664 mmHg 95%
    03:00 +10°C° 0.3 mm 2 mps 664 mmHg 95%
    04:00 +10°C° 0.3 mm 2 mps 664 mmHg 96%
    05:00 +12°C° 0.3 mm 2 mps 665 mmHg 94%
    06:00 +13°C° 0.3 mm 2 mps 665 mmHg 92%
    07:00 +13°C° 0 mm 3 mps 666 mmHg 88%
    08:00 +14°C° 0.4 mm 3 mps 666 mmHg 85%
    09:00 +14°C° 0.4 mm 3 mps 667 mmHg 82%
    10:00 +16°C° 0.4 mm 3 mps 667 mmHg 79%
    11:00 +16°C° 0.6 mm 3 mps 668 mmHg 79%
    12:00 +17°C° 0.6 mm 2 mps 668 mmHg 79%
    13:00 +17°C° 0.6 mm 2 mps 668 mmHg 79%
    14:00 +17°C° 0.7 mm 2 mps 668 mmHg 79%
    15:00 +17°C° 0.7 mm 2 mps 668 mmHg 80%
    16:00 +17°C° 0.7 mm 2 mps 669 mmHg 80%
    17:00 +16°C° 0.8 mm 2 mps 669 mmHg 84%
    18:00 +15°C° 0.8 mm 2 mps 669 mmHg 88%
    19:00 +15°C° 0.8 mm 2 mps 669 mmHg 92%
    20:00 +14°C° 1.1 mm 2 mps 669 mmHg 93%
    21:00 +13°C° 1.1 mm 2 mps 670 mmHg 95%
    22:00 +12°C° 1.1 mm 2 mps 670 mmHg 96%
    23:00 +12°C° 0.2 mm 1 mps 670 mmHg 95%

    Tomorrow, 30 June, Friday

    Time Temperature Precipitation Wind Pressure Humidity
    00:00 +11°C° 0.2 mm 1 mps 670 mmHg 95%
    01:00 +10°C° 0.2 mm 1 mps 670 mmHg 94%
    02:00 +10°C° 0.3 mm 1 mps 670 mmHg 94%
    03:00 +11°C° 0.3 mm 1 mps 671 mmHg 94%
    04:00 +10°C° 0.3 mm 2 mps 671 mmHg 94%
    05:00 +10°C° 0.2 mm 2 mps 671 mmHg 93%
    06:00 +12°C° 0.2 mm 1 mps 671 mmHg 91%
    07:00 +13°C° 0.2 mm 1 mps 672 mmHg 89%
    08:00 +14°C° 0.3 mm 2 mps 672 mmHg 84%
    09:00 +15°C° 0.3 mm 2 mps 673 mmHg 78%
    10:00 +16°C° 0.3 mm 3 mps 673 mmHg 72%
    11:00 +16°C° 0.5 mm 3 mps 673 mmHg 72%
    12:00 +17°C° 0.5 mm 2 mps 673 mmHg 71%
    13:00 +17°C° 0.5 mm 2 mps 673 mmHg 71%
    14:00 +17°C° 0.7 mm 2 mps 673 mmHg 71%
    15:00 +17°C° 0.7 mm 2 mps 673 mmHg 72%
    16:00 +17°C° 0.7 mm 2 mps 673 mmHg 72%
    17:00 +16°C° 0.6 mm 2 mps 673 mmHg 77%
    18:00 +15°C° 0.6 mm 2 mps 673 mmHg 82%
    19:00 +14°C° 0.6 mm 2 mps 673 mmHg 87%
    20:00 +13°C° 0.7 mm 2 mps 673 mmHg 89%
    21:00 +12°C° 0.7 mm 1 mps 673 mmHg 92%
    22:00 +11°C° 0.7 mm 1 mps 673 mmHg 95%
    23:00 +11°C° 0.6 mm 1 mps 673 mmHg 95%

    Day after tomorrow, 1 July, Saturday

    Time Temperature Precipitation Wind Pressure Humidity
    00:00 +11°C° 0.6 mm 1 mps 673 mmHg 95%
    01:00 +10°C° 0.6 mm 1 mps 673 mmHg 96%
    02:00 +10°C° 0.7 mm 1 mps 673 mmHg 96%
    03:00 +10°C° 0.7 mm 1 mps 672 mmHg 96%
    04:00 +10°C° 0.7 mm 1 mps 672 mmHg 97%
    05:00 +11°C° 0.4 mm 1 mps 673 mmHg 95%
    06:00 +11°C° 0.4 mm 1 mps 673 mmHg 93%
    07:00 +12°C° 0.4 mm 2 mps 674 mmHg 92%
    08:00 +14°C° 0.1 mm 1 mps 674 mmHg 84%
    09:00 +15°C° 0.1 mm 1 mps 675 mmHg 77%
    10:00 +18°C° 0.1 mm 1 mps 675 mmHg 69%
    11:00 +18°C° 0.3 mm 1 mps 675 mmHg 68%
    12:00 +18°C° 0.3 mm 2 mps 675 mmHg 66%
    13:00 +18°C° 0.3 mm 2 mps 675 mmHg 64%
    14:00 +18°C° 0.8 mm 2 mps 675 mmHg 69%
    15:00 +17°C° 0.8 mm 2 mps 675 mmHg 73%
    16:00 +17°C° 0.8 mm 2 mps 675 mmHg 78%
    17:00 +16°C° 0.9 mm 2 mps 675 mmHg 83%
    18:00 +15°C° 0.9 mm 1 mps 675 mmHg 87%
    19:00 +14°C° 0.9 mm 1 mps 675 mmHg 92%
    20:00 +13°C° 0.4 mm 1 mps 675 mmHg 93%
    21:00 +12°C° 0.4 mm 1 mps 676 mmHg 95%
    22:00 +11°C° 0.4 mm 1 mps 676 mmHg 96%
    23:00 +10°C° 0.1 mm 1 mps 676 mmHg 96%

    2 July, Sunday

    Time Temperature Precipitation Wind Pressure Humidity
    00:00 +10°C° 0.1 mm 1 mps 676 mmHg 96%
    01:00 +9°C° 0.1 mm 1 mps 676 mmHg 96%
    02:00 +9°C° 0 mm 1 mps 676 mmHg 96%
    03:00 +9°C° 0 mm 1 mps 676 mmHg 96%
    04:00 +8°C° 0 mm 2 mps 676 mmHg 96%
    05:00 +9°C° 0.2 mm 2 mps 676 mmHg 95%
    06:00 +10°C° 0.2 mm 2 mps 677 mmHg 94%
    07:00 +12°C° 0.2 mm 2 mps 677 mmHg 92%
    08:00 +12°C° 0.7 mm 2 mps 677 mmHg 92%
    09:00 +12°C° 0.7 mm 2 mps 677 mmHg 92%
    10:00 +12°C° 0.7 mm 2 mps 678 mmHg 91%
    11:00 +13°C° 0.6 mm 2 mps 678 mmHg 89%
    12:00 +13°C° 0.6 mm 2 mps 678 mmHg 87%
    13:00 +14°C° 0.6 mm 2 mps 678 mmHg 84%
    14:00 +15°C° 0.1 mm 2 mps 678 mmHg 79%
    15:00 +16°C° 0.1 mm 2 mps 679 mmHg 75%
    16:00 +17°C° 0.1 mm 2 mps 679 mmHg 70%
    17:00 +16°C° 0.1 mm 2 mps 679 mmHg 75%
    18:00 +15°C° 0.1 mm 2 mps 679 mmHg 80%
    19:00 +15°C° 0.1 mm 2 mps 679 mmHg 85%
    20:00 +13°C° 0.1 mm 2 mps 679 mmHg 87%
    21:00 +12°C° 0.1 mm 2 mps 680 mmHg 90%
    22:00 +10°C° 0.1 mm 2 mps 680 mmHg 92%
    23:00 +10°C° 0 mm 2 mps 680 mmHg 91%

    3 July, Monday

    Time Temperature Precipitation Wind Pressure Humidity
    00:00 +10°C° 0 mm 2 mps 680 mmHg 91%
    01:00 +9°C° 0 mm 2 mps 680 mmHg 90%
    02:00 +9°C° 0 mm 2 mps 680 mmHg 90%
    03:00 +9°C° 0 mm 2 mps 680 mmHg 89%
    04:00 +9°C° 0 mm 2 mps 680 mmHg 89%
    05:00 +10°C° 0.1 mm 2 mps 680 mmHg 87%
    06:00 +12°C° 0.1 mm 2 mps 680 mmHg 86%
    07:00 +13°C° 0.1 mm 2 mps 681 mmHg 84%
    08:00 +14°C° 0.2 mm 2 mps 681 mmHg 83%
    09:00 +15°C° 0.2 mm 2 mps 681 mmHg 82%
    10:00 +16°C° 0.2 mm 2 mps 681 mmHg 81%
    11:00 +16°C° 0.3 mm 2 mps 681 mmHg 80%
    12:00 +17°C° 0.3 mm 2 mps 681 mmHg 79%
    13:00 +17°C° 0.3 mm 2 mps 681 mmHg 79%
    14:00 +18°C° 0.2 mm 2 mps 681 mmHg 76%
    15:00 +19°C° 0.2 mm 2 mps 681 mmHg 74%
    16:00 +19°C° 0.2 mm 2 mps 681 mmHg 71%
    17:00 +18°C° 0.3 mm 2 mps 681 mmHg 78%
    18:00 +18°C° 0.3 mm 1 mps 681 mmHg 84%
    19:00 +16°C° 0.3 mm 1 mps 681 mmHg 90%
    20:00 +15°C° 0.2 mm 1 mps 681 mmHg 92%
    21:00 +13°C° 0.2 mm 1 mps 681 mmHg 94%
    22:00 +12°C° 0.2 mm 1 mps 681 mmHg 96%
    23:00 +11°C° 0 mm 1 mps 681 mmHg 96%

    4 July, Tuesday

    Time Temperature Precipitation Wind Pressure Humidity
    00:00 +11°C° 0 mm 1 mps 681 mmHg 95%
    01:00 +11°C° 0 mm 1 mps 681 mmHg 95%
    02:00 +11°C° 0 mm 1 mps 680 mmHg 95%
    03:00 +10°C° 0 mm 1 mps 680 mmHg 95%
    04:00 +10°C° 0 mm 1 mps 680 mmHg 95%
    05:00 +11°C° 0 mm 1 mps 680 mmHg 92%
    06:00 +13°C° 0 mm 1 mps 681 mmHg 90%
    07:00 +14°C° 0 mm 0 mps 681 mmHg 87%
    08:00 +16°C° 0 mm 0 mps 682 mmHg 81%
    09:00 +19°C° 0 mm 1 mps 682 mmHg 75%
    10:00 +21°C° 0 mm 1 mps 682 mmHg 69%
    11:00 +22°C° 0.1 mm 1 mps 682 mmHg 66%
    12:00 +22°C° 0.1 mm 1 mps 682 mmHg 64%
    13:00 +23°C° 0.1 mm 1 mps 682 mmHg 62%
    14:00 +23°C° 0.3 mm 1 mps 681 mmHg 66%
    15:00 +22°C° 0.3 mm 1 mps 681 mmHg 70%
    16:00 +22°C° 0.3 mm 1 mps 681 mmHg 75%
    17:00 +21°C° 0.4 mm 1 mps 681 mmHg 80%
    18:00 +20°C° 0.4 mm 1 mps 680 mmHg 85%
    19:00 +19°C° 0.4 mm 1 mps 680 mmHg 90%
    20:00 +16°C° 0.4 mm 1 mps 680 mmHg 92%
    21:00 +13°C° 0.4 mm 1 mps 679 mmHg 94%
    22:00 +9°C° 0.4 mm 0 mps 679 mmHg 96%
    23:00 +10°C° 0.2 mm 1 mps 678 mmHg 96%
    Show more